Location: Asheville, NC
(35.6000°N, 82.5500°W)
Time: 06:36:05

KKS-1 - Pass Details

Date: 15 March 2018
Orbit: 638 x 650 km, 98.4° (Epoch: 16 March)

Event Time Altitude Azimuth Distance (km) Brightness Sun altitude
Rises 06:48:18 0° 182° (S) 2,946 ? -11.5°
Reaches altitude 10° 06:50:35 10° 189° (S) 2,041 ? -11.1°
Maximum altitude 06:54:48 42° 261° (W) 926 ? -10.2°
Drops below altitude 10° 06:59:04 10° 332° (NNW) 2,056 ? -9.3°
Sets 07:01:23 0° 340° (NNW) 2,970 ? -8.9°
